Temp
48 45 42 45 48 48 49 48 45 46 49 48 48 50 51 54 52 51 52 52 53 54 56 59 61 60 59 63 62 64 62 62 58 54 53 53 55 53 53 54 57 55 55 55
46 40 43 46 48 47 49 45 40 44 47 47 45 47 52 52 50 50 50 50 51 52 54 56 56 56 56 59 60 63 63 63 61 59 58 58 54 52 52 52 52 53 53 54
41 41 46 47 46 45 45 44 42 42 44 46 45 42 47 49 52 53 50 51 51 50 50 52 54 52 52 52 53 56 58 61 62 61 60 59 58 56 54 53 51 52 52 52
40 47 46 46 43 45 40 46 46 43 42 34 43 31 39 44 44 46 47 46 47 49 50 51 51 50 50 50 51 53 54 55 57 57 59 59 56 55 55 55 55 55 54 53
37 41 43 41 41 47 41 48 45 44 39 39 38 34 36 43 41 43 44 46 47 48 49 49 50 52 51 51 49 50 52 53 53 53 54 53 57 57 57 57 56 55 53 52
41 47 44 43 46 46 46 44 43 42 39 30 35 32 31 37 42 42 45 47 48 48 49 50 51 51 50 49 49 49 50 50 51 51 52 51 50 50 50 51 54 55 53 51
38 40 45 47 42 44 44 39 29 28 27 29 35 33 36 44 46 47 46 46 48 48 48 48 48 49 49 48 48 49 48 48 49 49 49 50 50 49 48 49 51 51 51 51
32 29 39 45 43 41 43 42 33 27 27 30 34 31 37 47 49 50 49 48 48 48 49 48 49 47 47 47 47 47 47 47 48 47 47 47 48 47 47 48 48 48 48 50
33 32 42 44 45 44 40 36 43 34 30 31 33 36 43 44 45 47 46 46 47 47 48 48 48 47 46 46 47 47 47 47 47 47 46 45 45 45 45 46 46 46 47 49
39 31 38 42 45 44 42 44 35 34 26 27 32 32 36 39 42 45 45 45 46 48 48 48 48 48 48 47 46 47 48 47 46 46 45 45 44 44 45 44 44 45 46 46
44 39 33 40 39 38 38 36 37 38 34 31 28 33 44 46 47 46 47 47 48 48 48 48 48 47 46 45 44 44 45 44 44 44 44 43 43 43 43 43 43 43 44 45
44 38 29 34 40 42 40 40 40 34 31 30 32 32 44 48 50 49 47 48 47 47 46 46 46 45 43 43 43 44 43 43 44 44 43 43 42 42 41 41 42 42 43 44
42 31 22 29 36 38 36 39 42 41 37 31 28 34 44 45 45 48 47 46 46 45 44 44 43 42 42 42 43 43 43 43 43 43 42 41 41 40 40 40 41 41 41 43
44 34 31 27 31 35 32 35 39 39 29 32 32 35 40 42 42 43 44 44 44 45 45 43 42 42 42 43 43 42 42 41 42 42 40 39 39 39 39 40 40 40 41 40
40 26 29 31 32 33 32 34 35 35 37 33 36 38 42 43 44 46 46 45 44 45 44 43 42 41 41 41 42 41 40 40 41 40 39 38 39 39 38 38 38 38 38 40
38 24 29 23 31 30 27 33 34 36 38 36 37 36 45 46 47 44 45 45 44 44 45 44 44 43 42 42 42 41 40 40 39 38 38 38 37 37 36 37 37 37 37 38
29 26 22 19 27 24 22 30 34 34 37 40 34 43 43 42 44 44 45 45 45 44 44 44 43 43 43 42 42 40 40 40 38 37 37 38 37 35 36 35 35 36 36 37
26 25 21 16 17 14 33 35 35 38 40 42 41 43 44 45 45 44 44 43 43 44 44 44 44 43 42 41 41 40 40 38 36 36 35 37 36 36 35 33 33 35 36 35
30 26 17 14 5 24 35 34 33 32 34 43 43 42 43 42 41 41 44 44 45 43 44 43 43 42 41 40 40 38 37 36 34 35 34 36 36 34 35 34 34 35 33 34
31 31 22 15 8 10 31 32 34 36 28 41 45 45 40 39 34 43 43 43 43 43 42 42 42 42 40 40 38 36 35 34 35 34 34 34 33 33 34 34 34 35 34 34
26 22 16 6 8 19 32 34 35 22 33 37 41 44 43 41 46 43 43 41 42 42 42 42 40 40 40 38 35 34 33 35 36 34 34 34 34 34 34 34 33 33 32 33
26 25 21 12 7 18 33 32 30 35 35 36 37 39 40 41 41 41 42 41 41 41 41 40 38 37 37 36 33 33 32 36 33 33 33 34 33 33 34 32 32 31 31 30
22 27 23 28 26 30 36 32 36 35 36 36 35 38 41 39 39 40 39 39 40 40 37 36 36 35 35 34 33 32 35 34 32 29 29 29 30 31 31 30 30 29 30 29
23 18 23 28 28 35 30 34 35 36 37 37 37 35 37 39 39 37 37 36 36 36 36 35 34 33 33 33 34 33 32 32 26 27 29 30 29 29 29 30 30 29 28 28
25 26 21 24 31 32 33 34 38 37 38 37 35 37 38 37 36 36 35 35 35 34 34 33 33 32 32 32 31 30 31 27 26 27 28 28 28 27 27 28 28 28 30 30
24 25 30 29 36 40 41 40 39 35 37 38 33 31 31 36 36 34 34 34 33 33 33 32 31 28 30 29 28 23 19 20 21 25 26 26 26 25 25 25 25 31 32 33
MSLP
1015.22 1015.50 1016.07 1016.08 1015.96 1016.21 1016.06 1017.16 1017.65 1018.39 1018.57 1018.50 1018.72 1018.41 1018.46 1018.27 1018.53 1018.77 1019.03 1019.07 1019.12 1019.42 1019.30 1018.68 1018.79 1018.76 1019.00 1019.21 1019.42 1019.67 1020.07 1020.28 1020.66 1021.07 1021.42 1021.57 1021.47 1021.45 1021.61 1021.47 1021.44 1021.48 1021.65 1021.59
1015.81 1016.28 1016.74 1016.52 1016.51 1016.32 1016.32 1016.96 1018.17 1019.13 1019.25 1019.05 1019.80 1019.48 1019.09 1019.03 1019.34 1019.52 1019.75 1019.85 1019.91 1019.98 1019.75 1019.91 1019.95 1019.77 1019.80 1019.82 1019.75 1019.65 1019.89 1020.17 1020.42 1020.49 1020.62 1020.73 1020.90 1021.11 1021.30 1021.45 1021.69 1021.62 1021.65 1021.64
1016.20 1017.35 1016.99 1016.86 1016.78 1016.53 1016.74 1016.75 1017.72 1018.54 1019.64 1020.19 1020.39 1020.39 1019.92 1019.96 1019.90 1020.07 1020.39 1020.51 1020.50 1020.39 1020.39 1020.48 1020.40 1020.62 1020.46 1020.47 1020.53 1020.41 1020.20 1020.10 1020.13 1020.30 1020.45 1020.59 1020.75 1021.05 1021.41 1021.38 1021.26 1021.21 1021.21 1021.23
1017.16 1017.21 1016.95 1017.22 1017.32 1017.11 1017.28 1017.53 1017.54 1018.62 1019.42 1020.43 1020.57 1021.08 1020.78 1020.77 1020.91 1020.92 1021.15 1021.18 1021.24 1021.10 1020.92 1020.82 1020.99 1021.06 1021.11 1021.08 1020.92 1020.79 1020.67 1020.62 1020.62 1020.65 1020.77 1020.80 1020.97 1020.99 1021.02 1021.02 1020.76 1020.57 1020.53 1020.72
1018.57 1017.99 1017.74 1017.67 1018.25 1017.48 1018.36 1018.11 1018.37 1019.03 1019.73 1020.30 1021.09 1021.11 1020.75 1020.97 1021.36 1021.46 1021.77 1021.70 1021.60 1021.47 1021.44 1021.37 1021.40 1021.49 1021.40 1021.50 1021.41 1021.08 1020.93 1021.00 1021.08 1020.98 1021.01 1021.05 1020.91 1020.73 1020.72 1020.77 1020.57 1020.37 1020.19 1020.30
1018.49 1018.57 1018.56 1018.67 1018.59 1018.17 1018.89 1018.86 1019.21 1020.08 1020.53 1021.29 1020.92 1021.05 1020.99 1020.71 1020.65 1021.41 1021.66 1021.77 1021.55 1021.57 1021.57 1021.47 1021.57 1021.51 1021.46 1021.61 1021.57 1021.45 1021.50 1021.51 1021.33 1021.18 1021.09 1021.11 1021.27 1021.17 1021.01 1020.85 1020.59 1020.41 1020.29 1020.28
1018.98 1019.34 1019.35 1019.15 1019.15 1019.60 1019.41 1019.41 1020.51 1020.98 1020.77 1020.75 1020.58 1020.87 1019.92 1019.49 1020.02 1020.48 1020.94 1021.48 1021.44 1021.49 1021.52 1021.58 1021.69 1021.91 1021.94 1021.88 1021.83 1021.75 1021.70 1021.69 1021.52 1021.34 1021.23 1021.10 1020.96 1020.89 1020.79 1020.66 1020.43 1020.21 1019.90 1019.68
1019.14 1020.35 1019.83 1019.45 1019.27 1019.01 1018.99 1018.98 1019.26 1019.63 1020.15 1020.44 1020.57 1020.11 1019.27 1019.16 1019.60 1020.28 1020.74 1020.98 1021.32 1021.50 1021.49 1021.64 1021.85 1022.07 1022.20 1022.13 1022.07 1021.92 1021.87 1021.60 1021.46 1021.39 1021.26 1021.19 1021.09 1021.01 1020.84 1020.80 1020.56 1020.34 1020.06 1019.64
1018.93 1020.05 1020.20 1019.68 1019.28 1019.16 1019.17 1018.90 1019.04 1019.23 1019.87 1019.88 1019.81 1019.73 1019.53 1019.63 1020.00 1020.28 1020.55 1020.90 1021.11 1021.44 1021.42 1021.70 1021.83 1021.96 1022.17 1022.17 1022.13 1022.00 1022.02 1021.70 1021.44 1021.36 1021.31 1021.21 1021.06 1020.89 1020.86 1020.59 1020.33 1020.14 1019.78 1019.38
1018.55 1019.80 1020.41 1019.98 1019.65 1019.49 1019.41 1019.49 1019.32 1019.29 1019.74 1019.82 1019.28 1018.83 1018.25 1018.93 1019.13 1019.62 1020.08 1020.51 1020.88 1021.13 1021.48 1021.63 1021.80 1022.00 1022.06 1022.14 1022.22 1022.12 1021.86 1021.62 1021.41 1021.39 1021.26 1021.05 1020.85 1020.74 1020.67 1020.39 1020.11 1019.87 1019.55 1019.22
1017.88 1018.68 1020.81 1020.59 1019.81 1019.51 1019.81 1019.45 1019.39 1019.23 1018.97 1018.67 1018.75 1017.19 1016.03 1016.47 1017.31 1018.27 1019.39 1020.06 1020.58 1021.13 1021.40 1021.69 1021.78 1021.93 1021.98 1022.09 1022.15 1022.08 1021.90 1021.72 1021.51 1021.33 1021.15 1020.95 1020.68 1020.51 1020.32 1020.08 1019.77 1019.58 1019.37 1019.04
1017.83 1018.81 1020.33 1020.32 1019.73 1019.48 1019.37 1018.89 1018.76 1018.66 1018.80 1018.72 1018.32 1016.70 1015.53 1015.53 1016.42 1017.74 1018.82 1019.53 1020.28 1020.70 1021.21 1021.52 1021.67 1021.91 1022.19 1022.23 1022.15 1022.00 1021.86 1021.71 1021.53 1021.35 1021.03 1020.85 1020.66 1020.37 1020.16 1019.69 1019.27 1019.00 1018.78 1018.46
1018.19 1019.25 1020.64 1021.01 1020.77 1020.04 1019.72 1018.86 1018.52 1018.41 1018.26 1018.13 1017.93 1016.52 1015.85 1015.90 1016.84 1017.60 1018.39 1019.21 1020.06 1020.46 1021.05 1021.46 1021.72 1021.94 1022.13 1022.20 1022.03 1021.86 1021.79 1021.66 1021.35 1021.20 1021.01 1020.75 1020.46 1020.27 1019.98 1019.63 1019.23 1018.85 1018.49 1018.01
1018.51 1019.54 1020.33 1020.66 1020.32 1019.91 1019.81 1018.90 1018.69 1018.65 1018.57 1017.91 1017.30 1016.70 1016.42 1016.79 1017.14 1017.57 1018.24 1018.93 1019.84 1020.33 1020.66 1021.08 1021.56 1021.76 1021.88 1021.90 1021.83 1021.76 1021.64 1021.45 1021.24 1021.10 1020.97 1020.86 1020.46 1020.15 1019.79 1019.19 1018.75 1018.34 1018.08 1017.65
1019.54 1020.75 1021.27 1021.53 1021.38 1020.79 1020.15 1019.47 1018.87 1018.52 1017.77 1017.75 1016.94 1016.77 1016.28 1016.51 1016.77 1017.12 1017.80 1018.86 1019.74 1020.17 1020.44 1020.61 1021.13 1021.47 1021.57 1021.79 1021.63 1021.50 1021.54 1021.37 1021.06 1020.91 1020.62 1020.35 1019.91 1019.56 1019.10 1018.79 1018.41 1018.01 1017.62 1017.10
1020.47 1021.77 1022.46 1022.94 1022.45 1021.82 1021.03 1019.73 1019.04 1018.47 1017.80 1017.16 1016.75 1016.43 1015.80 1016.07 1016.59 1017.43 1018.04 1018.69 1019.15 1019.44 1019.74 1019.95 1020.38 1020.80 1021.09 1021.26 1021.27 1021.18 1021.03 1020.80 1020.68 1020.58 1020.41 1019.97 1019.74 1019.40 1018.96 1018.45 1018.16 1017.52 1017.16 1016.65
1021.81 1022.77 1023.99 1024.43 1023.56 1022.49 1021.09 1018.66 1018.19 1017.66 1016.66 1016.25 1016.12 1014.97 1015.76 1016.06 1016.29 1016.76 1017.44 1017.83 1018.29 1018.77 1019.08 1019.38 1019.89 1020.30 1020.58 1020.71 1020.72 1020.74 1020.53 1020.27 1020.36 1020.26 1020.23 1019.85 1019.48 1019.26 1018.70 1018.18 1017.81 1017.44 1016.72 1016.05
1022.58 1023.79 1024.81 1025.80 1024.97 1022.88 1018.80 1017.61 1017.09 1016.46 1015.77 1015.20 1014.71 1014.62 1014.84 1015.09 1015.44 1015.82 1016.34 1017.03 1017.65 1017.99 1018.38 1018.90 1019.28 1019.67 1019.90 1020.02 1020.11 1020.15 1020.11 1019.94 1019.95 1019.89 1019.95 1019.56 1019.18 1018.80 1018.23 1017.95 1017.53 1016.70 1016.20 1015.70
1022.94 1023.78 1025.67 1026.66 1025.94 1022.14 1018.34 1017.11 1016.82 1016.37 1014.58 1013.95 1013.60 1014.30 1014.46 1015.00 1015.68 1015.91 1015.98 1016.35 1016.69 1017.24 1017.77 1018.24 1018.68 1018.98 1019.15 1019.46 1019.59 1019.92 1019.90 1019.71 1019.52 1019.50 1019.56 1019.18 1018.82 1018.28 1017.90 1017.36 1016.80 1016.08 1015.60 1014.86
1023.53 1023.73 1024.96 1026.91 1025.92 1022.94 1018.34 1016.80 1016.34 1015.94 1014.53 1011.72 1012.15 1013.41 1014.30 1015.08 1015.96 1014.59 1015.44 1015.91 1016.51 1016.87 1017.28 1017.83 1018.36 1018.61 1018.74 1018.87 1019.36 1019.70 1019.56 1019.14 1019.18 1019.24 1018.95 1018.53 1018.20 1017.91 1017.30 1016.76 1016.08 1015.44 1015.11 1014.25
1024.31 1024.86 1025.20 1025.78 1024.78 1021.37 1017.18 1016.92 1016.77 1016.43 1013.69 1011.50 1011.39 1012.12 1013.56 1014.20 1013.49 1014.37 1014.79 1015.48 1015.95 1016.64 1017.27 1017.59 1017.98 1018.44 1018.60 1018.76 1019.06 1019.24 1018.91 1018.81 1018.78 1018.38 1018.08 1017.77 1017.35 1017.04 1016.54 1015.99 1015.68 1015.16 1014.53 1013.80
1022.55 1023.57 1024.16 1024.46 1023.74 1020.41 1016.11 1016.86 1016.17 1013.91 1012.80 1012.29 1012.26 1012.37 1012.93 1013.42 1014.02 1014.47 1014.91 1015.63 1016.20 1016.66 1017.00 1017.37 1018.15 1018.64 1018.59 1018.51 1018.54 1018.79 1018.75 1018.25 1018.07 1017.76 1017.54 1017.08 1016.67 1016.43 1016.10 1015.84 1015.14 1014.62 1014.11 1013.23
1021.55 1019.92 1020.33 1019.68 1017.87 1015.76 1015.13 1014.43 1013.85 1013.70 1013.49 1012.82 1012.64 1012.55 1012.81 1013.55 1014.18 1014.69 1015.36 1015.94 1016.33 1016.61 1017.05 1017.51 1018.04 1018.52 1018.28 1018.35 1018.59 1018.61 1018.06 1018.02 1017.80 1017.55 1017.14 1016.72 1016.23 1015.85 1015.67 1015.35 1014.64 1014.07 1013.56 1012.76
1020.12 1018.89 1018.60 1017.86 1015.43 1014.59 1014.53 1013.96 1013.52 1013.58 1013.27 1012.94 1012.99 1013.24 1013.52 1014.12 1014.36 1014.89 1015.48 1016.15 1016.63 1016.81 1016.91 1017.23 1017.79 1018.16 1018.31 1018.35 1018.30 1017.98 1017.89 1017.76 1017.74 1017.31 1016.90 1016.48 1016.04 1015.51 1015.17 1014.70 1014.19 1013.58 1012.94 1012.03
1018.08 1017.90 1017.27 1016.06 1014.78 1014.16 1013.51 1013.50 1013.13 1013.37 1013.34 1013.23 1013.35 1013.48 1013.83 1014.39 1015.20 1015.46 1015.72 1016.17 1016.48 1016.80 1017.11 1017.50 1017.86 1018.00 1018.02 1018.25 1018.29 1018.15 1017.96 1017.77 1017.80 1017.53 1017.03 1016.42 1016.00 1015.51 1014.79 1014.16 1013.68 1013.13 1012.60 1012.04
1016.21 1015.54 1014.97 1013.50 1012.65 1011.89 1011.57 1011.11 1011.69 1012.87 1012.95 1013.01 1013.63 1013.98 1014.28 1014.66 1014.83 1015.76 1016.20 1016.25 1016.71 1017.13 1017.38 1017.67 1017.89 1018.12 1018.06 1018.27 1018.30 1018.52 1018.15 1018.07 1018.20 1017.80 1017.19 1016.58 1015.93 1015.24 1014.77 1013.87 1012.64 1012.85 1012.11 1011.28
Wind_Speed
1 4 4 7 4 2 11 8 9 7 2 6 4 7 6 6 7 7 7 9 9 9 5 12 7 0 2 4 5 7 6 6 5 2 2 3 3 3 3 3 5 5 4 4
4 4 2 2 1 3 13 14 8 6 2 5 3 5 6 6 4 6 6 7 7 5 9 8 7 8 7 5 4 4 7 7 6 3 3 3 3 2 2 1 4 5 6 5
6 1 2 3 4 7 4 14 9 9 8 6 6 2 3 4 5 7 8 6 6 7 7 6 7 7 6 7 7 6 5 1 3 6 2 1 1 2 1 2 3 5 6 6
7 5 4 8 6 2 5 5 12 15 5 5 0 3 4 3 5 7 6 6 5 6 5 6 7 7 6 5 5 6 6 7 6 6 2 2 2 2 2 3 3 5 6 6
0 7 7 8 3 6 6 7 12 9 5 4 2 3 4 7 3 5 5 5 5 5 5 6 6 5 4 5 5 6 7 7 6 6 5 3 5 4 3 4 6 4 3 5
6 2 5 3 4 10 10 14 13 3 4 1 6 4 5 6 8 7 5 5 6 5 5 5 4 5 5 5 6 6 6 5 6 5 5 4 4 5 4 4 6 4 2 3
4 7 1 1 11 8 5 7 3 2 0 4 3 3 7 7 11 12 12 9 7 6 5 5 6 5 6 6 6 4 5 5 5 5 5 4 4 4 5 6 5 5 4 3
4 2 5 5 2 4 5 4 3 5 5 4 1 6 5 6 9 11 9 8 7 7 6 6 6 5 5 5 5 5 5 4 4 4 4 4 5 3 4 5 5 4 4 5
5 3 2 4 5 3 2 3 2 4 2 3 4 2 5 4 7 8 10 8 7 7 6 7 6 5 4 4 3 3 3 3 3 4 4 4 4 5 5 7 5 4 6 6
5 5 3 4 1 2 3 2 3 2 4 4 4 4 5 15 16 13 12 9 8 7 7 6 5 5 3 2 1 2 1 2 3 4 4 3 5 5 6 6 7 7 7 7
3 3 2 1 6 7 3 2 3 1 3 5 3 7 6 23 21 19 13 10 8 8 8 7 6 5 4 2 1 2 4 4 5 5 4 5 5 6 6 6 6 6 6 8
3 5 3 4 1 1 2 4 5 4 5 2 2 7 5 16 19 17 12 10 8 9 8 7 7 7 5 3 2 4 4 5 5 5 5 6 6 6 6 6 7 6 8 7
2 1 4 6 4 1 5 5 4 1 2 6 6 6 6 6 9 12 14 9 9 9 8 7 6 7 6 5 4 5 5 5 5 5 6 7 7 7 7 7 7 7 7 9
1 3 5 7 3 1 5 6 6 4 3 3 6 2 2 5 10 10 9 9 9 9 9 7 6 7 7 6 5 6 6 6 6 6 6 7 8 8 7 7 8 7 8 9
4 4 2 1 3 3 2 4 7 12 6 8 4 10 6 10 13 16 11 11 9 9 8 8 7 7 7 6 6 6 7 6 5 6 6 7 7 7 7 7 8 8 7 10
1 2 3 3 3 4 3 7 7 10 10 9 5 7 5 5 7 8 9 11 10 8 9 9 9 8 8 7 7 7 7 7 4 6 8 8 7 7 8 8 9 9 9 10
5 6 4 5 4 5 8 13 17 8 8 12 16 12 6 6 8 11 12 13 10 8 9 8 8 8 8 8 7 7 7 6 6 7 7 9 8 9 10 8 8 10 11 11
6 5 3 4 3 3 6 2 3 16 10 18 8 9 11 9 7 9 8 10 10 9 8 7 7 6 7 4 5 5 6 7 7 8 7 9 10 11 10 8 9 11 10 12
3 5 3 5 4 9 9 8 9 10 11 22 23 9 7 5 5 6 7 8 8 8 8 8 6 5 4 5 5 5 7 8 7 8 8 10 10 12 12 12 13 12 11 13
2 4 6 3 5 9 7 1 2 5 10 15 24 18 11 8 6 11 10 7 9 8 6 7 7 4 2 6 3 5 8 8 9 7 10 9 9 10 13 13 14 12 11 14
4 2 7 3 4 11 13 6 5 8 11 3 12 16 15 13 12 5 6 5 7 7 8 5 5 4 6 6 3 7 8 10 8 7 8 9 9 11 12 13 11 12 13 14
12 10 6 4 2 13 8 6 11 8 5 3 4 8 14 9 8 7 8 7 8 8 6 5 4 5 7 6 3 7 9 9 7 8 9 11 11 10 11 13 13 13 12 14
4 10 9 13 11 6 12 2 7 3 3 3 4 6 10 10 8 9 8 9 8 8 6 4 4 4 7 5 5 8 9 6 7 6 10 10 10 11 10 11 13 11 11 11
6 4 3 3 7 15 7 6 5 6 4 2 2 2 6 8 8 9 8 7 6 6 6 3 2 6 7 4 6 8 7 7 6 9 11 11 11 13 11 9 8 9 10 11
7 9 6 7 8 7 7 11 11 9 7 6 3 5 8 8 7 6 6 6 7 6 3 4 6 6 7 4 7 6 7 6 8 8 10 11 9 10 12 10 9 10 10 11
7 9 10 9 9 9 6 10 13 11 17 13 9 5 4 8 9 6 7 6 5 6 4 4 5 4 6 5 6 4 5 4 7 11 9 9 10 9 10 11 13 14 21 24
Wind_Direction
25 115 137 173 176 320 147 155 129 112 145 73 9 79 50 45 55 50 51 54 54 52 24 43 25 70 156 153 157 160 175 191 161 150 169 237 227 226 251 252 271 283 276 253
84 81 27 306 145 248 174 135 111 74 100 103 140 59 69 55 63 83 87 68 65 58 38 45 49 53 48 40 341 192 186 187 191 185 188 191 185 207 177 237 269 267 266 257
85 110 217 182 125 145 109 158 159 136 115 45 154 106 100 45 63 55 43 63 57 73 65 41 42 42 43 35 15 20 13 279 187 207 190 228 59 50 25 251 254 251 239 240
56 338 152 112 80 7 102 13 125 137 141 159 348 193 189 130 80 63 54 64 74 76 74 67 53 47 38 23 29 28 24 19 5 7 346 243 217 273 239 237 235 246 230 235
12 32 61 65 32 17 84 111 113 107 86 105 237 131 230 145 116 110 100 109 111 120 112 97 98 97 70 47 41 32 29 25 10 10 7 353 319 302 310 309 296 277 240 219
75 349 38 70 75 66 111 86 74 118 118 12 217 146 221 185 173 149 145 159 150 141 115 98 101 94 73 48 49 49 47 31 25 26 4 350 320 311 315 311 310 307 290 251
71 39 154 104 97 133 146 151 91 81 32 215 133 147 228 174 155 156 157 172 171 152 124 104 88 68 63 58 53 59 58 42 26 29 18 355 322 304 295 298 297 298 278 257
103 137 350 334 62 153 162 193 174 166 180 166 16 225 267 156 143 151 163 169 168 152 141 119 105 90 75 69 63 61 53 42 19 10 354 345 338 328 318 309 309 306 293 282
132 94 308 19 13 7 303 53 2 104 40 100 175 345 359 135 150 160 174 171 170 154 147 135 113 102 100 88 75 87 67 22 6 352 347 341 336 334 312 309 301 286 291 291
168 109 337 331 288 69 112 192 94 335 132 219 227 206 224 188 186 188 190 181 180 164 148 148 138 138 135 111 66 50 299 271 291 319 326 326 328 321 307 305 301 297 291 285
143 98 147 250 203 178 163 238 223 148 186 182 176 250 203 193 188 186 189 183 167 157 175 171 166 165 168 178 197 311 315 318 320 327 317 319 308 305 302 294 290 285 283 291
213 114 130 203 311 99 268 236 194 178 198 223 159 272 337 191 184 176 177 173 163 172 180 181 177 182 199 216 270 294 309 315 305 293 294 300 298 299 297 289 283 282 286 289
167 60 83 355 338 191 220 204 238 183 89 202 141 259 354 132 155 170 168 166 168 178 175 179 178 194 205 214 244 283 289 286 293 293 297 300 300 301 292 287 289 293 293 295
111 94 166 184 166 119 200 211 192 177 165 163 224 267 119 149 159 167 171 163 178 184 183 184 191 208 212 220 241 272 287 293 299 299 296 294 291 288 287 286 287 289 289 291
107 157 106 97 17 4 329 241 204 209 202 191 211 213 194 190 181 184 171 166 180 193 187 193 193 211 217 237 260 277 282 287 275 285 293 282 285 287 287 289 287 283 282 290
27 190 105 311 352 16 281 258 266 248 242 260 252 260 206 171 154 160 175 181 190 194 194 198 202 209 221 230 247 264 275 285 283 293 294 294 293 292 287 290 292 292 290 292
128 131 98 264 332 340 303 226 210 213 215 215 228 218 174 200 196 189 187 188 190 191 195 197 199 212 225 230 235 266 284 295 298 292 293 298 297 289 290 287 287 289 293 293
127 102 93 201 15 296 245 201 235 230 233 220 239 185 187 195 193 176 184 180 191 190 192 199 200 220 235 240 247 271 294 292 293 291 293 298 297 294 293 286 282 294 296 291
7 123 111 141 193 295 285 200 180 179 256 222 226 195 190 164 93 261 198 196 190 188 196 197 194 195 217 262 282 292 295 282 288 292 287 294 291 294 296 296 297 294 295 297
29 52 120 115 156 219 244 166 128 89 292 218 211 203 176 136 182 230 195 186 198 190 176 183 194 200 246 282 276 278 281 292 299 284 276 278 283 287 294 293 293 294 288 288
127 61 161 178 227 282 246 157 141 94 240 265 194 200 170 192 206 170 165 163 170 172 191 184 177 220 254 273 273 286 288 288 279 268 282 286 285 287 291 294 290 292 290 289
169 166 178 119 169 269 154 66 166 224 306 325 143 171 182 181 140 146 154 152 158 183 195 202 212 252 274 278 315 286 278 285 288 290 290 293 295 294 299 293 291 290 288 286
217 183 183 187 205 213 202 154 223 184 254 269 218 196 179 163 169 164 179 178 189 195 204 197 199 267 279 284 254 271 278 296 291 291 293 293 294 296 291 287 292 296 294 291
255 180 220 87 239 238 221 250 223 211 228 243 313 248 156 170 168 178 169 182 180 195 222 206 236 259 271 271 265 260 295 292 293 298 299 302 306 305 301 296 297 296 296 296
191 145 173 268 279 301 238 230 229 218 235 240 187 160 183 159 198 174 181 186 207 225 227 202 234 251 265 275 269 284 289 304 302 301 304 309 306 305 306 300 301 299 294 293
176 184 193 222 212 215 224 213 207 191 216 219 175 221 213 195 184 175 208 212 207 222 235 253 263 260 283 289 282 301 287 296 301 306 309 312 309 310 307 308 310 304 304 308